sat.trackr.live / text

‹ back to catalog

STARLINK-11373 [DTC]

NORAD 61582 · 2024-187J

PAYLOAD ACTIVE UNKNOWN

§ Identity

Operator
Country
US
Launch date
2024-10-18
Launch site
AFETR
Launch vehicle
Mass (kg)
RCS (m²)

Purposes: comms

External: N2YO · Heavens-Above · Gunter

§ Orbital elements

Epoch: 2026-09-21T09:26:20.205024Z

Period
91.74 min
Inclination
53.1596°
Eccentricity
0.0001004
Mean motion
15.69709919 rev/d
Perigee alt
359.1 km
Apogee alt
360.4 km
Semi-major
6,737.9 km
B*
-7.2784e-6
RAAN
51.8076°
Arg perigee
78.6006°
Mean anomaly
281.5125°
Rev number
11,148

§ Raw data

STARLINK-11373 [DTC]1 61582U 24187J   26264.39328941 -.00001470  00000+0 -72784-5 0  99992 61582  53.1596  51.8076 0001004  78.6006 281.5125 15.69709919111487

JSON: /api/v1/satellites/61582 · /tle

For live sub-satellite position, see the globe view (requires WebGL).

§ Visibility from observer

Set your observer location to see the next 7 days of passes ≥ 10°. The values pass through the URL so the page stays shareable.

No JS? Fill the form by hand. The geolocation button needs JavaScript.